When you browse on this site, cookies collect data to enhance your experience and personalize the content and advertising you see.
Visit our Privacy Policy to learn more. By continuing to use the site, you agree to this use of cookies and data.
  • In Hungary
  • List of Countries
  • For 7 days
  • Water Temperature
  • Weather Map
  • News
  • Weather Widgets
  • user-avatar
    Login

    Hourly Weather Bedworth

    Today, 19 August, Monday

    Time Temperature Precipitation Wind Pressure Humidity
    00:00 +12°C° 0 mm 4 mps 746 mmHg 86%
    01:00 +12°C° 0 mm 5 mps 746 mmHg 87%
    02:00 +12°C° 0 mm 5 mps 746 mmHg 89%
    03:00 +12°C° 0 mm 5 mps 746 mmHg 90%
    04:00 +12°C° 0 mm 5 mps 746 mmHg 90%
    05:00 +12°C° 0 mm 4 mps 747 mmHg 90%
    06:00 +12°C° 0 mm 4 mps 747 mmHg 90%
    07:00 +13°C° 0 mm 4 mps 748 mmHg 84%
    08:00 +15°C° 0 mm 4 mps 748 mmHg 77%
    09:00 +17°C° 0 mm 4 mps 748 mmHg 71%
    10:00 +18°C° 0.1 mm 4 mps 749 mmHg 67%
    11:00 +19°C° 0.1 mm 5 mps 749 mmHg 63%
    12:00 +19°C° 0.1 mm 5 mps 749 mmHg 59%
    13:00 +19°C° 0.5 mm 5 mps 749 mmHg 59%
    14:00 +19°C° 0.5 mm 6 mps 750 mmHg 60%
    15:00 +19°C° 0.5 mm 6 mps 750 mmHg 61%
    16:00 +17°C° 0.2 mm 5 mps 750 mmHg 63%
    17:00 +17°C° 0.2 mm 5 mps 750 mmHg 66%
    18:00 +17°C° 0.2 mm 4 mps 751 mmHg 68%
    19:00 +15°C° 0 mm 4 mps 751 mmHg 72%
    20:00 +14°C° 0 mm 4 mps 752 mmHg 76%
    21:00 +12°C° 0 mm 4 mps 752 mmHg 80%
    22:00 +12°C° 0 mm 4 mps 752 mmHg 82%
    23:00 +11°C° 0 mm 4 mps 753 mmHg 84%

    Tomorrow, 20 August, Tuesday

    Time Temperature Precipitation Wind Pressure Humidity
    00:00 +11°C° 0 mm 4 mps 753 mmHg 87%
    01:00 +11°C° 0 mm 3 mps 753 mmHg 88%
    02:00 +10°C° 0 mm 3 mps 753 mmHg 89%
    03:00 +10°C° 0 mm 3 mps 754 mmHg 90%
    04:00 +10°C° 0 mm 3 mps 754 mmHg 89%
    05:00 +10°C° 0 mm 3 mps 754 mmHg 89%
    06:00 +10°C° 0 mm 3 mps 754 mmHg 88%
    07:00 +11°C° 0 mm 3 mps 755 mmHg 81%
    08:00 +13°C° 0 mm 4 mps 755 mmHg 74%
    09:00 +14°C° 0 mm 5 mps 755 mmHg 68%
    10:00 +15°C° 0 mm 5 mps 756 mmHg 65%
    11:00 +17°C° 0 mm 4 mps 756 mmHg 62%
    12:00 +17°C° 0 mm 4 mps 756 mmHg 60%
    13:00 +18°C° 0 mm 4 mps 756 mmHg 58%
    14:00 +18°C° 0 mm 4 mps 756 mmHg 57%
    15:00 +18°C° 0 mm 4 mps 757 mmHg 56%
    16:00 +18°C° 0 mm 4 mps 757 mmHg 59%
    17:00 +17°C° 0 mm 3 mps 757 mmHg 63%
    18:00 +17°C° 0 mm 3 mps 757 mmHg 66%
    19:00 +16°C° 0 mm 3 mps 758 mmHg 71%
    20:00 +14°C° 0 mm 3 mps 758 mmHg 76%
    21:00 +14°C° 0 mm 2 mps 758 mmHg 81%
    22:00 +12°C° 0 mm 3 mps 758 mmHg 85%
    23:00 +12°C° 0 mm 3 mps 758 mmHg 88%

    Day after tomorrow, 21 August, Wednesday

    Time Temperature Precipitation Wind Pressure Humidity
    00:00 +12°C° 0 mm 3 mps 758 mmHg 91%
    01:00 +12°C° 0 mm 3 mps 758 mmHg 92%
    02:00 +12°C° 0 mm 3 mps 758 mmHg 92%
    03:00 +12°C° 0 mm 3 mps 758 mmHg 93%
    04:00 +12°C° 0 mm 3 mps 758 mmHg 93%
    05:00 +12°C° 0 mm 3 mps 758 mmHg 93%
    06:00 +12°C° 0 mm 3 mps 758 mmHg 93%
    07:00 +13°C° 0 mm 3 mps 758 mmHg 88%
    08:00 +14°C° 0 mm 4 mps 758 mmHg 84%
    09:00 +15°C° 0 mm 4 mps 758 mmHg 79%
    10:00 +18°C° 0 mm 4 mps 758 mmHg 73%
    11:00 +19°C° 0 mm 5 mps 758 mmHg 67%
    12:00 +20°C° 0 mm 5 mps 758 mmHg 60%
    13:00 +20°C° 0.1 mm 5 mps 757 mmHg 60%
    14:00 +20°C° 0.1 mm 5 mps 757 mmHg 60%
    15:00 +20°C° 0.1 mm 5 mps 757 mmHg 60%
    16:00 +19°C° 0.2 mm 5 mps 757 mmHg 64%
    17:00 +19°C° 0.2 mm 4 mps 757 mmHg 68%
    18:00 +18°C° 0.2 mm 4 mps 756 mmHg 71%
    19:00 +17°C° 0 mm 3 mps 756 mmHg 75%
    20:00 +16°C° 0 mm 3 mps 756 mmHg 78%
    21:00 +14°C° 0 mm 3 mps 757 mmHg 81%
    22:00 +14°C° 0 mm 3 mps 756 mmHg 80%
    23:00 +14°C° 0 mm 4 mps 756 mmHg 79%

    22 August, Thursday

    Time Temperature Precipitation Wind Pressure Humidity
    00:00 +14°C° 0 mm 4 mps 756 mmHg 79%
    01:00 +13°C° 0 mm 4 mps 756 mmHg 81%
    02:00 +13°C° 0 mm 4 mps 755 mmHg 83%
    03:00 +13°C° 0 mm 4 mps 755 mmHg 85%
    04:00 +13°C° 0 mm 4 mps 755 mmHg 86%
    05:00 +13°C° 0 mm 4 mps 755 mmHg 87%
    06:00 +13°C° 0 mm 4 mps 756 mmHg 89%
    07:00 +14°C° 0 mm 5 mps 756 mmHg 82%
    08:00 +15°C° 0 mm 5 mps 756 mmHg 76%
    09:00 +16°C° 0 mm 5 mps 756 mmHg 69%
    10:00 +17°C° 0 mm 5 mps 756 mmHg 65%
    11:00 +19°C° 0 mm 5 mps 756 mmHg 60%
    12:00 +20°C° 0 mm 6 mps 756 mmHg 56%
    13:00 +20°C° 0 mm 6 mps 756 mmHg 57%
    14:00 +21°C° 0 mm 6 mps 755 mmHg 58%
    15:00 +21°C° 0 mm 6 mps 755 mmHg 59%
    16:00 +21°C° 0 mm 5 mps 755 mmHg 63%
    17:00 +20°C° 0 mm 5 mps 755 mmHg 67%
    18:00 +20°C° 0 mm 5 mps 755 mmHg 71%
    19:00 +19°C° 0 mm 5 mps 755 mmHg 74%
    20:00 +17°C° 0 mm 5 mps 756 mmHg 78%
    21:00 +16°C° 0 mm 5 mps 756 mmHg 81%
    22:00 +15°C° 0 mm 5 mps 756 mmHg 84%
    23:00 +15°C° 0 mm 5 mps 756 mmHg 87%

    23 August, Friday

    Time Temperature Precipitation Wind Pressure Humidity
    00:00 +15°C° 0 mm 5 mps 756 mmHg 89%
    01:00 +15°C° 0 mm 5 mps 756 mmHg 90%
    02:00 +15°C° 0 mm 4 mps 756 mmHg 90%
    03:00 +15°C° 0 mm 4 mps 756 mmHg 91%
    04:00 +15°C° 0 mm 4 mps 756 mmHg 92%
    05:00 +15°C° 0 mm 4 mps 756 mmHg 92%
    06:00 +15°C° 0 mm 4 mps 756 mmHg 93%
    07:00 +17°C° 0 mm 4 mps 756 mmHg 88%
    08:00 +17°C° 0 mm 5 mps 756 mmHg 83%
    09:00 +20°C° 0 mm 5 mps 756 mmHg 78%
    10:00 +20°C° 0 mm 5 mps 756 mmHg 75%
    11:00 +21°C° 0 mm 5 mps 756 mmHg 72%
    12:00 +22°C° 0 mm 5 mps 756 mmHg 69%
    13:00 +22°C° 0 mm 4 mps 756 mmHg 68%
    14:00 +23°C° 0 mm 4 mps 756 mmHg 67%
    15:00 +23°C° 0 mm 4 mps 756 mmHg 66%
    16:00 +22°C° 0 mm 4 mps 756 mmHg 69%
    17:00 +22°C° 0 mm 3 mps 755 mmHg 72%
    18:00 +21°C° 0 mm 3 mps 755 mmHg 75%
    19:00 +20°C° 0 mm 2 mps 755 mmHg 79%
    20:00 +19°C° 0 mm 2 mps 755 mmHg 83%
    21:00 +19°C° 0 mm 1 mps 755 mmHg 86%
    22:00 +17°C° 0 mm 2 mps 755 mmHg 87%
    23:00 +17°C° 0 mm 2 mps 755 mmHg 88%

    24 August, Saturday

    Time Temperature Precipitation Wind Pressure Humidity
    00:00 +17°C° 0 mm 2 mps 755 mmHg 90%
    01:00 +16°C° 0 mm 1 mps 754 mmHg 90%
    02:00 +16°C° 0 mm 1 mps 754 mmHg 91%
    03:00 +16°C° 0 mm 1 mps 753 mmHg 91%
    04:00 +16°C° 0 mm 1 mps 753 mmHg 91%
    05:00 +16°C° 0 mm 1 mps 753 mmHg 91%
    06:00 +16°C° 0 mm 1 mps 753 mmHg 91%
    07:00 +18°C° 0 mm 1 mps 753 mmHg 85%
    08:00 +18°C° 0 mm 2 mps 753 mmHg 80%
    09:00 +20°C° 0 mm 2 mps 753 mmHg 75%
    10:00 +21°C° 0.1 mm 2 mps 753 mmHg 71%
    11:00 +23°C° 0.1 mm 2 mps 752 mmHg 66%
    12:00 +24°C° 0.1 mm 3 mps 752 mmHg 62%
    13:00 +24°C° 0.2 mm 3 mps 752 mmHg 60%
    14:00 +23°C° 0.2 mm 4 mps 752 mmHg 58%
    15:00 +23°C° 0.2 mm 4 mps 751 mmHg 56%
    16:00 +23°C° 0.1 mm 4 mps 751 mmHg 60%
    17:00 +22°C° 0.1 mm 3 mps 751 mmHg 63%
    18:00 +21°C° 0.1 mm 3 mps 751 mmHg 66%
    19:00 +20°C° 0 mm 2 mps 751 mmHg 70%
    20:00 +19°C° 0 mm 2 mps 751 mmHg 75%
    21:00 +18°C° 0 mm 1 mps 751 mmHg 79%
    22:00 +18°C° 0 mm 1 mps 751 mmHg 81%
    23:00 +15°C° 0 mm 0 mps 751 mmHg 83%
    Show more